Home   Weather   Örebro   Past weeks

Flag for Sweden Past Weather in Örebro, Sweden — Yesterday and Last 2 Weeks

Now
66 °F

Partly sunny.


Feels Like: 66 °F
Forecast: 54 / 72 °F
Wind: 10 mph from Northeast

Location: Orebro Private

Current Time: Jul 25, 2017 at 7:04:37 pm

Latest Report: Jul 25, 2017 at 6:20 pm


Visibility: N/A

Pressure: 29.86 "Hg

Humidity: 78%

Dew Point: 59 °F

Location of ÖrebroLocation

Past Weather in Örebro — Graph

°F

Örebro Temperature Yesterday

Maximum temperature yesterday: 72 °F (at 4:50 pm)
Minimum temperature yesterday: 50 °F (at 4:50 am)
Average temperature yesterday: 62 °F

High & Low Weather Summary for the Past Weeks

 TemperatureHumidityPressure
High79 °F (Jul 22, 2:20 pm)100% (Jul 16, 4:50 pm)30.12 "Hg (Jul 16, 4:50 pm)
Low46 °F (Jul 14, 5:20 am)29% (Jul 14, 6:50 pm)29.56 "Hg (Jul 12, 4:20 am)
Average62 °F67%29.90 "Hg
* Reported Jul 10 6:20 pm — Jul 25 6:20 pm, Örebro. Weather by CustomWeather, © 2017

Note: Actual official high and low records may vary slightly from our data, if they occured in-between our weather recording intervals... More about our weather records

Advertising

Örebro Weather History for the Previous 24 Hours

Scroll right to see more
 ConditionsComfort  
Time TempWeatherWind HumidityBarometerVisibility
6:20 pm
Tue, Jul 25
66 °FPartly sunny.10 mph78%29.86 "HgN/A
5:50 pm66 °FScattered showers. Partly sunny.17 mph78%29.86 "HgN/A
5:20 pm70 °FScattered showers. Partly sunny.10 mph64%29.86 "HgN/A
4:50 pm68 °FScattered showers. Broken clouds.10 mph69%29.86 "HgN/A
4:20 pm70 °FPartly sunny.7 mph60%29.86 "HgN/A
3:50 pm70 °FPartly sunny.8 mph64%29.86 "HgN/A
3:20 pm68 °FBroken clouds.9 mph64%29.86 "HgN/A
2:50 pm68 °FBroken clouds.12 mph64%29.86 "HgN/A
2:20 pm68 °FOvercast.9 mph64%29.86 "HgN/A
1:50 pm68 °FOvercast.9 mph64%29.89 "HgN/A
1:20 pm66 °FOvercast.7 mph73%29.89 "HgN/A
12:50 pm64 °FBroken clouds.9 mph78%29.89 "HgN/A
12:20 pm64 °FBroken clouds.9 mph78%29.89 "HgN/A
11:50 am66 °FPartly sunny.10 mph68%29.89 "HgN/A
11:20 am66 °FPartly sunny.12 mph73%29.89 "HgN/A
10:50 am63 °FPartly sunny.9 mph77%29.89 "HgN/A
10:20 am61 °FPartly sunny.9 mph83%29.89 "HgN/A
9:50 am61 °FPartly sunny.12 mph83%29.89 "HgN/A
9:20 am61 °FPartly sunny.8 mph88%29.92 "HgN/A
8:50 am61 °FPartly sunny.9 mph83%29.92 "HgN/A
8:20 am59 °FPartly sunny.7 mph88%29.92 "HgN/A
7:50 am57 °FPartly sunny.7 mph88%29.92 "HgN/A
7:20 am57 °FPartly sunny.6 mph88%29.92 "HgN/A
6:50 am55 °FPartly sunny.8 mph88%29.92 "HgN/A
6:20 am55 °FPartly sunny.7 mph88%29.92 "HgN/A
5:50 am54 °FScattered clouds.3 mph94%29.92 "HgN/A
5:20 am52 °FScattered clouds.6 mph94%29.95 "HgN/A
4:50 am50 °FCool.5 mph94%29.92 "HgN/A
4:20 am50 °FCool.10 mph94%29.95 "HgN/A
3:50 am52 °FClear.9 mph94%29.95 "Hg10 mi
3:20 am52 °FClear.8 mph94%29.95 "Hg10 mi
2:50 am54 °FClear.8 mph88%29.95 "Hg10 mi
2:20 am54 °FClear.7 mph88%29.95 "Hg10 mi
1:50 am54 °FClear.7 mph88%29.95 "Hg10 mi
12:50 am55 °FClear.9 mph82%29.95 "Hg10 mi
12:20 am57 °FClear.7 mph77%29.95 "Hg10 mi
11:50 pm
Mon, Jul 24
57 °FClear.9 mph77%29.95 "Hg10 mi
11:20 pm61 °FClear.8 mph72%29.95 "Hg10 mi
10:50 pm63 °FClear.7 mph68%29.95 "Hg10 mi
10:20 pm63 °FClear.6 mph68%29.95 "Hg10 mi
9:50 pm63 °FClear.7 mph73%29.92 "Hg10 mi
9:20 pm64 °FSunny.5 mph73%29.92 "Hg10 mi
8:50 pm64 °FSunny.5 mph73%29.92 "Hg10 mi
8:20 pm66 °FSunny.5 mph64%29.92 "Hg10 mi
7:50 pm68 °FSunny.5 mph60%29.92 "Hg10 mi
7:20 pm70 °FPassing clouds.6 mph53%29.92 "HgN/A
Weather by CustomWeather, © 2017

See weather overviewHow to use our weather pages